Temp
12 11 11 11 10 10 10 10 9 8 8 7 7 6 6 5 5 5 4 4 4 4
12 11 11 11 10 10 9 9 9 8 8 7 7 6 6 5 5 4 4 4 4 3
12 12 11 11 10 10 9 9 8 8 8 7 7 6 6 5 5 4 4 4 3 3
13 12 11 10 10 10 9 9 8 8 7 7 6 6 6 5 5 4 4 3 3 3
12 11 10 10 10 10 9 9 8 7 7 7 6 6 6 5 4 4 3 3 2 2
11 10 10 10 10 10 9 8 8 7 7 7 7 6 5 5 4 4 3 3 3 2
9 9 9 9 10 9 9 8 8 7 7 7 6 6 5 5 4 4 3 3 2 2
8 8 8 9 9 9 8 8 7 7 6 6 6 5 5 4 4 3 3 2 2 2
7 7 7 7 7 8 8 7 7 6 6 6 6 6 5 4 4 3 3 2 2 2
6 6 6 6 6 7 7 7 7 6 6 5 5 5 5 4 3 3 2 2 1 1
5 5 5 6 6 6 6 6 5 5 5 5 5 5 4 4 3 2 2 1 1 1
4 4 4 4 4 4 4 5 4 4 4 4 4 4 4 3 2 2 1 1 0 -0
4 4 4 3 3 3 3 3 3 3 4 3 3 4 3 2 2 1 1 0 0 -1
4 3 3 3 3 2 2 2 2 2 3 2 2 3 2 2 2 1 0 0 -0 -1
Height
815 814 814 813 813 812 812 812 812 812 811 811 810 809 808 808 807 806 805 804 803 802
810 810 808 808 809 808 808 808 808 808 808 807 807 807 806 806 805 804 804 803 802 802
805 804 804 804 803 803 804 804 804 804 804 804 803 803 802 802 801 801 801 800 800 800
801 799 798 797 797 797 799 799 799 800 800 800 800 800 799 799 799 798 799 798 798 798
798 795 793 792 792 793 793 794 794 795 794 795 795 795 794 794 795 796 796 797 796 797
795 791 789 788 788 788 788 788 788 788 787 787 787 788 788 789 790 790 791 792 793 794
791 787 785 783 783 782 782 781 781 781 781 782 783 783 783 785 786 786 786 786 787 789
789 785 782 780 779 778 777 776 776 776 775 776 777 777 778 779 781 782 782 782 782 783
787 783 780 778 776 775 773 771 770 769 769 770 770 771 772 773 774 776 778 779 779 780
785 781 778 776 774 772 769 767 765 764 762 762 763 765 766 768 769 770 772 774 775 776
783 780 776 773 770 768 766 763 761 760 759 758 757 758 760 761 763 764 766 768 770 772
781 778 774 771 768 765 762 758 757 755 753 751 751 752 753 756 756 758 761 763 765 767
779 776 772 768 765 762 759 755 752 749 747 746 745 746 747 749 751 753 756 758 759 761
776 772 769 765 762 759 755 751 748 745 743 741 741 740 742 745 745 747 750 752 754 756
Wind_Speed
20 21 21 21 20 21 19 18 15 14 13 12 11 10 9 9 8 6 6 6 6 5
23 25 25 23 22 23 21 20 18 17 16 14 12 11 10 9 9 8 7 6 5 6
22 24 25 25 25 25 23 22 20 19 18 16 14 12 12 11 9 9 8 7 7 7
21 21 22 24 26 26 23 23 22 21 20 18 16 15 14 13 11 11 10 9 8 7
22 21 20 22 24 24 24 23 23 22 21 20 19 18 17 16 14 13 12 11 10 9
21 21 20 19 19 20 22 23 22 23 24 23 22 21 19 18 16 15 13 13 13 10
22 21 19 16 15 16 18 21 23 25 25 25 23 23 21 19 18 16 15 14 13 12
19 18 16 14 14 15 16 18 21 24 26 26 25 25 23 21 19 19 16 15 14 15
19 19 17 15 14 15 16 17 18 21 25 27 27 27 24 22 21 20 18 16 15 14
20 21 20 18 17 18 19 20 20 20 22 26 28 27 25 21 21 20 18 16 15 14
19 20 20 21 21 21 21 21 20 21 21 23 26 27 25 22 21 20 17 16 14 14
18 20 20 21 21 21 23 23 23 21 21 21 23 23 23 21 23 23 20 16 14 13
17 19 21 21 23 23 22 23 23 23 21 20 22 19 19 21 25 25 23 18 18 19
18 19 19 21 22 22 23 22 22 20 19 19 18 18 16 20 25 27 25 21 18 17
Wind_Direction
276 275 275 276 275 274 276 279 279 278 280 286 289 292 296 302 298 291 277 274 267 260
281 273 273 276 274 274 273 273 274 274 275 279 283 288 289 294 290 282 273 274 261 257
295 283 276 273 270 270 272 269 269 270 271 273 275 277 277 279 277 266 263 257 249 252
310 296 281 270 269 269 271 268 267 269 270 270 272 273 272 272 270 261 257 249 247 251
324 308 290 277 273 273 271 269 267 266 265 264 264 265 263 264 262 259 257 253 248 250
321 320 304 291 286 280 273 270 266 262 260 259 259 259 258 257 257 254 254 250 249 250
327 322 313 298 290 289 283 274 267 262 262 260 259 257 256 255 254 252 252 248 243 244
337 332 323 309 303 302 295 286 277 268 263 260 257 256 255 254 252 249 249 246 240 241
347 351 349 333 320 314 309 302 290 276 268 263 259 260 258 256 249 247 248 246 242 238
346 345 345 340 333 327 322 314 304 292 279 269 266 262 259 251 248 244 243 245 240 235
347 343 340 336 333 329 322 317 311 302 293 284 276 269 258 249 238 241 237 237 237 237
346 341 340 337 333 328 324 319 312 305 297 288 284 277 266 242 226 228 229 228 227 230
341 339 338 337 333 328 323 315 311 304 299 293 285 281 264 232 224 219 222 223 236 248
336 337 338 333 334 331 326 320 316 312 308 298 286 279 264 231 225 222 219 229 244 235